Date String (YYYY-MM-DD hh:mm:ss) UTC,Instrument flags,absolute air pressure of the measurement (hPa),sample flow rate (lpm),inlet stack bypass flow (lpm),air temperature of the measurement (°C),ambient temperature measured by the external sensor (°C),aerosol sample conditioner tube jacket temperature (°C),OPC LED temperature (°C),internal box temperature (°C),relative humidity of the measurement (%),span deviation,mass concentration of particles derived from Lorenz-Mie calculation of OPC scattering (μg/m³),mass concentration of particles derived from Lorenz-Mie calculation of OPC scattering (μg/m³),mass concentration of particles derived from Lorenz-Mie calculation of OPC scattering (μg/m³)
DateTimeUTC,F1_M11,P_M11,Q1_M11,Q2_M11,T1_M11,T2_M11,T3_M11,T4_M11,T5_M11,U1_M11,ZSPAN_M11,X2_M11,X0_M11,X1_M11
2024-05-02 02:00:00,SystemResetWarning,0821.8,5.00,000.00,025.1,024.4,000.0,033.6,026.8,023.4,0000.0,0002.17,0008.05,0001.04
2024-05-02 02:01:00,SystemResetWarning,0821.8,5.00,000.00,025.1,024.4,000.0,033.6,026.8,023.5,0000.0,0002.22,0008.09,0001.07
2024-05-02 02:02:00,SystemResetWarning,0821.8,5.00,000.00,025.1,024.4,000.0,033.6,026.8,023.6,0000.0,0002.18,0008.12,0001.07
2024-05-02 02:03:00,SystemResetWarning,0821.8,5.00,000.00,025.1,024.4,000.0,033.6,026.8,023.6,0000.0,0002.18,0008.27,0001.06
2024-05-02 02:04:00,SystemResetWarning,0821.8,5.00,000.00,025.1,024.4,000.0,033.6,026.8,023.6,0000.0,0002.18,0008.18,0001.08
2024-05-02 02:05:00,SystemResetWarning,0821.8,5.00,000.00,025.1,024.4,000.0,033.6,026.8,023.7,0000.0,0002.17,0008.14,0001.09
2024-05-02 02:06:00,SystemResetWarning,0821.8,4.99,000.00,025.1,024.4,000.0,033.6,026.8,023.8,0000.0,0002.12,0007.94,0001.08
2024-05-02 02:07:00,SystemResetWarning,0821.8,5.00,000.00,025.1,024.4,000.0,033.6,026.8,023.7,0000.0,0002.09,0008.27,0001.07
2024-05-02 02:08:00,SystemResetWarning,0821.8,5.00,000.00,025.1,024.4,000.0,033.6,026.7,023.7,0000.0,0002.11,0009.26,0001.07
2024-05-02 02:09:00,SystemResetWarning,0821.8,5.00,000.00,025.0,024.4,000.0,033.6,026.7,023.7,0000.0,0002.13,0008.38,0001.06
2024-05-02 02:10:00,SystemResetWarning,0821.8,5.01,000.00,025.0,024.4,000.0,033.6,026.7,023.8,0000.0,0002.06,0007.96,0001.05
2024-05-02 02:11:00,SystemResetWarning,0821.8,5.00,000.00,025.0,024.4,000.0,033.5,026.8,023.7,0000.0,0002.03,0008.15,0001.06
2024-05-02 02:12:00,SystemResetWarning,0821.8,4.98,000.00,025.0,024.4,000.0,033.5,026.7,023.7,0000.0,0002.04,0008.61,0001.05
2024-05-02 02:13:00,SystemResetWarning,0821.8,5.01,000.00,025.0,024.4,000.0,033.5,026.8,023.7,0000.0,0002.11,0008.80,0001.06
2024-05-02 02:14:00,SystemResetWarning,0821.9,5.01,000.00,025.0,024.4,000.0,033.5,026.8,023.6,0000.0,0002.17,0008.87,0001.06
2024-05-02 02:15:00,SystemResetWarning,0821.8,5.01,000.00,025.0,024.3,000.0,033.5,026.8,023.5,0000.0,0002.19,0009.91,0001.06
2024-05-02 02:16:00,SystemResetWarning,0821.8,5.00,000.00,025.0,024.3,000.0,033.5,026.8,023.3,0000.0,0002.17,0010.34,0001.05
2024-05-02 02:17:00,SystemResetWarning,0821.8,4.99,000.00,025.0,024.3,000.0,033.5,026.8,023.4,0000.0,0002.16,0010.35,0001.04
2024-05-02 02:18:00,SystemResetWarning,0821.8,5.00,000.00,025.0,024.4,000.0,033.5,026.8,023.4,0000.0,0002.13,0010.67,0001.05
2024-05-02 02:19:00,SystemResetWarning,0821.8,5.01,000.00,025.1,024.4,000.0,033.5,026.9,023.3,0000.0,0002.11,0009.70,0001.06
2024-05-02 02:20:00,SystemResetWarning,0821.9,5.00,000.00,025.1,024.4,000.0,033.5,026.8,023.2,0000.0,0002.05,0010.08,0001.06
2024-05-02 02:21:00,SystemResetWarning,0821.8,5.00,000.00,025.0,024.4,000.0,033.5,026.8,023.3,0000.0,0002.08,0010.40,0001.06
2024-05-02 02:22:00,SystemResetWarning,0821.8,4.99,000.00,025.1,024.4,000.0,033.5,026.8,023.3,0000.0,0002.08,0010.41,0001.05
2024-05-02 02:23:00,SystemResetWarning,0821.8,4.98,000.00,025.1,024.4,000.0,033.5,026.9,023.3,0000.0,0002.04,0010.29,0001.03
2024-05-02 02:24:00,SystemResetWarning,0821.8,5.00,000.00,025.1,024.4,000.0,033.5,026.9,023.3,0000.0,0002.05,0010.58,0001.02
2024-05-02 02:25:00,SystemResetWarning,0821.8,5.01,000.00,025.1,024.4,000.0,033.5,026.9,023.3,0000.0,0002.00,0010.38,0001.01
2024-05-02 02:26:00,SystemResetWarning,0821.8,5.01,000.00,025.1,024.4,000.0,033.5,026.8,023.3,0000.0,0001.95,0009.63,0001.00
2024-05-02 02:27:00,SystemResetWarning,0821.8,5.01,000.00,025.1,024.4,000.0,033.5,026.9,023.3,0000.0,0002.02,0009.69,0000.99
2024-05-02 02:28:00,SystemResetWarning,0821.8,5.00,000.00,025.1,024.4,000.0,033.5,026.9,023.3,0000.0,0002.04,0010.42,0000.98
2024-05-02 02:29:00,SystemResetWarning,0821.8,4.98,000.00,025.1,024.4,000.0,033.5,026.9,023.3,0000.0,0002.06,0009.71,0000.97
2024-05-02 02:30:00,SystemResetWarning,0821.8,5.00,000.00,025.1,024.5,000.0,033.5,027.0,023.3,0000.0,0002.02,0009.88,0000.95
2024-05-02 02:31:00,SystemResetWarning,0821.8,5.00,000.00,025.1,024.5,000.0,033.5,026.9,023.3,0000.0,0002.04,0009.42,0000.95
2024-05-02 02:32:00,SystemResetWarning,0821.8,5.01,000.00,025.1,024.5,000.0,033.5,027.0,023.3,0000.0,0002.02,0009.61,0000.94
2024-05-02 02:33:00,SystemResetWarning,0821.9,5.00,000.00,025.1,024.5,000.0,033.5,027.0,023.3,0000.0,0001.96,0008.87,0000.94
2024-05-02 02:34:00,SystemResetWarning,0822.0,5.01,000.00,025.1,024.5,000.0,033.5,026.9,023.4,0000.0,0001.93,0008.42,0000.94
2024-05-02 02:35:00,SystemResetWarning,0821.9,5.00,000.00,025.2,024.5,000.0,033.5,026.9,023.4,0000.0,0001.89,0007.85,0000.94
2024-05-02 02:36:00,SystemResetWarning,0821.9,4.98,000.00,025.2,024.5,000.0,033.5,027.0,023.3,0000.0,0001.87,0007.90,0000.94
2024-05-02 02:37:00,SystemResetWarning,0822.0,5.00,000.00,025.2,024.6,000.0,033.6,027.0,023.3,0000.0,0001.86,0007.60,0000.92
2024-05-02 02:38:00,SystemResetWarning,0822.0,5.01,000.00,025.2,024.6,000.0,033.6,027.0,023.3,0000.0,0001.80,0007.75,0000.93
2024-05-02 02:39:00,SystemResetWarning,0821.9,5.01,000.00,025.2,024.6,000.0,033.6,027.0,023.3,0000.0,0001.79,0007.70,0000.93
2024-05-02 02:40:00,SystemResetWarning,0821.9,5.00,000.00,025.2,024.6,000.0,033.6,027.0,023.3,0000.0,0001.77,0007.65,0000.94
2024-05-02 02:41:00,SystemResetWarning,0821.9,4.99,000.00,025.2,024.6,000.0,033.6,027.1,023.1,0000.0,0001.79,0007.42,0000.94
2024-05-02 02:42:00,SystemResetWarning,0821.9,5.00,000.00,025.3,024.6,000.0,033.6,027.1,023.0,0000.0,0001.81,0007.85,0000.95
2024-05-02 02:43:00,SystemResetWarning,0822.0,5.00,000.00,025.3,024.7,000.0,033.6,027.1,022.9,0000.0,0001.79,0007.34,0000.95
2024-05-02 02:44:00,SystemResetWarning,0821.9,5.01,000.00,025.3,024.7,000.0,033.7,027.1,022.8,0000.0,0001.82,0007.47,0000.94
2024-05-02 02:45:00,SystemResetWarning,0822.0,5.01,000.00,025.3,024.7,000.0,033.7,027.1,022.7,0000.0,0001.87,0007.52,0000.94
2024-05-02 02:46:00,SystemResetWarning,0822.0,4.99,000.00,025.3,024.7,000.0,033.7,027.1,022.7,0000.0,0001.84,0007.45,0000.95
2024-05-02 02:47:00,SystemResetWarning,0821.9,4.99,000.00,025.3,024.7,000.0,033.7,027.2,022.6,0000.0,0001.90,0007.51,0000.97
2024-05-02 02:48:00,SystemResetWarning,0822.0,5.00,000.00,025.4,024.8,000.0,033.7,027.2,020.5,0000.0,0001.97,0007.66,0000.99
2024-05-02 02:49:00,SystemResetWarning,0822.0,5.00,000.00,025.4,024.8,000.0,033.7,027.3,022.3,0000.0,0002.02,0006.91,0001.03
2024-05-02 02:50:00,SystemResetWarning,0822.1,5.00,000.00,025.4,024.8,000.0,033.8,027.3,022.6,0000.0,0002.00,0005.35,0001.02
2024-05-02 02:51:00,SystemResetWarning,0822.1,5.00,000.00,025.4,024.8,000.0,033.8,027.3,022.6,0000.0,0002.01,0005.59,0001.02
2024-05-02 02:52:00,SystemResetWarning,0822.2,5.01,000.00,025.4,024.8,000.0,033.8,027.2,022.6,0000.0,0002.01,0005.72,0001.03
2024-05-02 02:53:00,SystemResetWarning,0822.2,5.00,000.00,025.4,024.8,000.0,033.8,027.3,022.5,0000.0,0002.02,0006.23,0001.03
2024-05-02 02:54:00,SystemResetWarning,0822.2,5.00,000.00,025.4,024.8,000.0,033.8,027.3,022.5,0000.0,0002.02,0006.16,0001.03
2024-05-02 02:55:00,SystemResetWarning,0822.2,5.00,000.00,025.4,024.7,000.0,033.8,027.3,022.6,0000.0,0002.00,0006.22,0001.05
2024-05-02 02:56:00,SystemResetWarning,0822.2,5.00,000.00,025.4,024.7,000.0,033.8,027.2,021.5,0000.0,0001.98,0006.28,0001.06
2024-05-02 02:57:00,SystemResetWarning,0822.3,5.00,000.00,025.4,024.7,000.0,033.8,027.2,022.3,0000.0,0002.07,0006.51,0001.10
2024-05-02 02:58:00,SystemResetWarning,0822.3,4.99,000.00,025.4,024.7,000.0,033.8,027.3,022.5,0000.0,0002.07,0006.50,0001.10
2024-05-02 02:59:00,SystemResetWarning,0822.4,5.00,000.00,025.4,024.8,000.0,033.8,027.3,021.8,0000.0,0002.05,0006.54,0001.10
